| time (UTC) | temp F | wind direction | speed knots | gust knots | rain 1hr in | rain 24hr in | rain mn in | humidity % | barometer mb |
| 20260507073549 | 64 | 172 | 3.5 | 7.8 | 0.00 | 0.00 | 0.00 | 54 | 1014.6 |
| 20260507073044 | 64 | 150 | 2.6 | 7.8 | 0.00 | 0.00 | 0.00 | 54 | 1014.6 |
| 20260507072544 | 64 | 166 | 4.3 | 7.8 | 0.00 | 0.00 | 0.00 | 54 | 1014.6 |
| 20260507072042 | 64 | 174 | 3.5 | 7.8 | 0.00 | 0.00 | 0.00 | 54 | 1014.7 |
| 20260507071543 | 65 | 206 | 3.5 | 5.2 | 0.00 | 0.00 | 0.00 | 54 | 1014.5 |
| 20260507071042 | 65 | 178 | 3.5 | 7.8 | 0.00 | 0.00 | 0.00 | 54 | 1014.5 |
| 20260507070043 | 65 | 183 | 3.5 | 7.0 | 0.00 | 0.00 | 0.00 | 54 | 1014.4 |
| 20260507065542 | 65 | 176 | 2.6 | 7.0 | 0.00 | 0.00 | 0.00 | 53 | 1014.4 |
| 20260507065041 | 65 | 199 | 3.5 | 6.1 | 0.00 | 0.00 | 0.00 | 53 | 1014.5 |
| 20260507064541 | 66 | 168 | 2.6 | 7.8 | 0.00 | 0.00 | 0.00 | 53 | 1014.2 |
| 20260507064041 | 66 | 183 | 3.5 | 7.8 | 0.00 | 0.00 | 0.00 | 53 | 1014.4 |
| 20260507063538 | 66 | 195 | 3.5 | 7.8 | 0.00 | 0.00 | 0.00 | 53 | 1014.4 |
| 20260507063039 | 66 | 201 | 3.5 | 7.8 | 0.00 | 0.00 | 0.00 | 53 | 1014.3 |
| 20260507062537 | 66 | 180 | 3.5 | 7.8 | 0.00 | 0.00 | 0.00 | 53 | 1014.2 |
| 20260507062040 | 67 | 148 | 2.6 | 7.8 | 0.00 | 0.00 | 0.00 | 52 | 1014.1 |
| 20260507061536 | 67 | 149 | 2.6 | 7.8 | 0.00 | 0.00 | 0.00 | 52 | 1014.1 |
| 20260507061034 | 67 | 183 | 3.5 | 7.0 | 0.00 | 0.00 | 0.00 | 51 | 1013.9 |
| 20260507060035 | 67 | 195 | 3.5 | 7.8 | 0.00 | 0.00 | 0.00 | 50 | 1013.7 |
| 20260507055534 | 67 | 160 | 2.6 | 8.7 | 0.00 | 0.00 | 0.00 | 50 | 1013.6 |
| 20260507055035 | 68 | 146 | 3.5 | 9.6 | 0.00 | 0.00 | 0.00 | 49 | 1013.5 |
| 20260507054533 | 68 | 164 | 4.3 | 10.4 | 0.00 | 0.00 | 0.00 | 49 | 1013.4 |
| 20260507054033 | 68 | 147 | 3.5 | 8.7 | 0.00 | 0.00 | 0.00 | 49 | 1013.5 |
| 20260507053533 | 68 | 152 | 2.6 | 5.2 | 0.00 | 0.00 | 0.00 | 48 | 1013.4 |
| 20260507053035 | 69 | 106 | 1.7 | 7.0 | 0.00 | 0.00 | 0.00 | 48 | 1013.4 |
| 20260507052531 | 69 | 145 | 2.6 | 7.0 | 0.00 | 0.00 | 0.00 | 48 | 1013.2 |
| 20260507052031 | 69 | 199 | 2.6 | 8.7 | 0.00 | 0.00 | 0.00 | 47 | 1013.2 |
| 20260507051532 | 69 | 127 | 2.6 | 8.7 | 0.00 | 0.00 | 0.00 | 47 | 1013.1 |
| 20260507051029 | 70 | 135 | 1.7 | 5.2 | 0.00 | 0.00 | 0.00 | 47 | 1013.1 |
| 20260507050032 | 70 | 185 | 1.7 | 5.2 | 0.00 | 0.00 | 0.00 | 46 | 1012.9 |
| 20260507045531 | 70 | 127 | 2.6 | 7.0 | 0.00 | 0.00 | 0.00 | 46 | 1012.9 |
| 20260507045030 | 70 | 156 | 1.7 | 7.0 | 0.00 | 0.00 | 0.00 | 45 | 1013.0 |
| 20260507044530 | 70 | 117 | 1.7 | 6.1 | 0.00 | 0.00 | 0.00 | 45 | 1012.8 |
| 20260507044029 | 70 | 154 | 2.6 | 6.1 | 0.00 | 0.00 | 0.00 | 45 | 1012.9 |
| 20260507043529 | 71 | 168 | 1.7 | 4.3 | 0.00 | 0.00 | 0.00 | 45 | 1012.8 |
| 20260507043029 | 71 | 136 | 1.7 | 5.2 | 0.00 | 0.00 | 0.00 | 44 | 1012.8 |
| 20260507042529 | 71 | 139 | 1.7 | 6.1 | 0.00 | 0.00 | 0.00 | 44 | 1012.8 |
| 20260507042029 | 71 | 177 | 3.5 | 7.0 | 0.00 | 0.00 | 0.00 | 43 | 1012.7 |
| 20260507041528 | 71 | 104 | 2.6 | 5.2 | 0.00 | 0.00 | 0.00 | 43 | 1012.7 |
| 20260507041028 | 71 | 154 | 1.7 | 4.3 | 0.00 | 0.00 | 0.00 | 42 | 1012.7 |
| 20260507040027 | 72 | 164 | 1.7 | 4.3 | 0.00 | 0.00 | 0.00 | 41 | 1012.5 |
| 20260507035524 | 72 | 181 | 1.7 | 4.3 | 0.00 | 0.00 | 0.00 | 41 | 1012.5 |
| 20260507035024 | 72 | 157 | 2.6 | 4.3 | 0.00 | 0.00 | 0.00 | 40 | 1012.4 |
| 20260507034523 | 73 | 117 | 2.6 | 7.0 | 0.00 | 0.00 | 0.00 | 39 | 1012.5 |
| 20260507034023 | 73 | 150 | 2.6 | 7.0 | 0.00 | 0.00 | 0.00 | 39 | 1012.4 |
| 20260507033523 | 73 | 162 | 3.5 | 8.7 | 0.00 | 0.00 | 0.00 | 39 | 1012.2 |
| 20260507033024 | 73 | 156 | 4.3 | 8.7 | 0.00 | 0.00 | 0.00 | 38 | 1012.1 |
| 20260507032523 | 74 | 193 | 5.2 | 8.7 | 0.00 | 0.00 | 0.00 | 38 | 1012.1 |
| 20260507032025 | 74 | 152 | 4.3 | 7.8 | 0.00 | 0.00 | 0.00 | 37 | 1012.0 |
| 20260507031521 | 74 | 170 | 3.5 | 8.7 | 0.00 | 0.00 | 0.00 | 36 | 1012.1 |
| 20260507031025 | 74 | 136 | 2.6 | 5.2 | 0.00 | 0.00 | 0.00 | 32 | 1012.0 |
| 20260507030023 | 74 | 152 | 1.7 | 4.3 | 0.00 | 0.00 | 0.00 | 31 | 1011.7 |
| 20260507025522 | 74 | 140 | 1.7 | 4.3 | 0.00 | 0.00 | 0.00 | 31 | 1011.5 |
| 20260507025022 | 74 | 177 | 2.6 | 4.3 | 0.00 | 0.00 | 0.00 | 30 | 1011.5 |
| 20260507024525 | 75 | 174 | 1.7 | 4.3 | 0.00 | 0.00 | 0.00 | 28 | 1011.5 |
| 20260507024025 | 75 | 169 | 0.9 | 2.6 | 0.00 | 0.00 | 0.00 | 27 | 1011.4 |
| 20260507023522 | 75 | 157 | 0.9 | 2.6 | 0.00 | 0.00 | 0.00 | 26 | 1011.3 |
| 20260507023021 | 75 | 156 | 0.9 | 3.5 | 0.00 | 0.00 | 0.00 | 26 | 1011.1 |
| 20260507022525 | 75 | 164 | 0.9 | 4.3 | 0.00 | 0.00 | 0.00 | 26 | 1010.9 |
| 20260507022025 | 75 | 162 | 1.7 | 4.3 | 0.00 | 0.00 | 0.00 | 25 | 1010.9 |
| 20260507021522 | 76 | 192 | 2.6 | 4.3 | 0.00 | 0.00 | 0.00 | 26 | 1010.9 |
| 20260507021020 | 76 | 191 | 2.6 | 4.3 | 0.00 | 0.00 | 0.00 | 25 | 1010.7 |
| 20260507020019 | 76 | 221 | 1.7 | 2.6 | 0.00 | 0.00 | 0.00 | 25 | 1010.5 |
| 20260507015518 | 77 | 218 | 0.9 | 2.6 | 0.00 | 0.00 | 0.00 | 24 | 1010.4 |
| 20260507015018 | 77 | 185 | 0.9 | 2.6 | 0.00 | 0.00 | 0.00 | 24 | 1010.4 |
| 20260507014526 | 77 | 170 | 0.9 | 2.6 | 0.00 | 0.00 | 0.00 | 24 | 1010.3 |
| 20260507014018 | 77 | 153 | 0.9 | 1.7 | 0.00 | 0.00 | 0.00 | 24 | 1010.3 |
| 20260507013517 | 77 | 153 | 0.9 | 2.6 | 0.00 | 0.00 | 0.00 | 24 | 1010.3 |
| 20260507013017 | 77 | 153 | 0.9 | 2.6 | 0.00 | 0.00 | 0.00 | 23 | 1010.3 |
| 20260507012519 | 77 | 153 | 0.9 | 2.6 | 0.00 | 0.00 | 0.00 | 23 | 1010.1 |
| 20260507012019 | 78 | 153 | 0.9 | 3.5 | 0.00 | 0.00 | 0.00 | 23 | 1010.1 |
| 20260507011519 | 78 | 163 | 0.9 | 3.5 | 0.00 | 0.00 | 0.00 | 23 | 1010.0 |
| 20260507011017 | 78 | 173 | 0.9 | 4.3 | 0.00 | 0.00 | 0.00 | 23 | 1010.0 |
| 20260507010017 | 78 | 185 | 1.7 | 3.5 | 0.00 | 0.00 | 0.00 | 22 | 1009.9 |
| 20260507005517 | 78 | 127 | 0.9 | 3.5 | 0.00 | 0.00 | 0.00 | 22 | 1009.8 |
| 20260507005017 | 79 | 104 | 0.9 | 5.2 | 0.00 | 0.00 | 0.00 | 22 | 1009.8 |
| 20260507004520 | 79 | 122 | 1.7 | 5.2 | 0.00 | 0.00 | 0.00 | 21 | 1009.8 |
| 20260507004020 | 79 | 147 | 1.7 | 5.2 | 0.00 | 0.00 | 0.00 | 21 | 1009.8 |
| 20260507003515 | 79 | 110 | 2.6 | 5.2 | 0.00 | 0.00 | 0.00 | 21 | 1009.8 |
| 20260507003015 | 80 | 81 | 2.6 | 5.2 | 0.00 | 0.00 | 0.00 | 20 | 1009.8 |
| 20260507002516 | 80 | 127 | 2.6 | 5.2 | 0.00 | 0.00 | 0.00 | 18 | 1009.7 |
| 20260507002016 | 80 | 127 | 2.6 | 4.3 | 0.00 | 0.00 | 0.00 | 18 | 1009.7 |
| 20260507001521 | 81 | 70 | 2.6 | 4.3 | 0.00 | 0.00 | 0.00 | 16 | 1009.5 |
| 20260507001017 | 81 | 68 | 2.6 | 7.8 | 0.00 | 0.00 | 0.00 | 14 | 1009.6 |
| 20260507000022 | 81 | 54 | 3.5 | 7.8 | 0.00 | 0.00 | 0.00 | 13 | 1009.6 |
| 20260506235515 | 82 | 67 | 1.7 | 4.3 | 0.00 | 0.00 | 0.00 | 13 | 1009.6 |
| 20260506235015 | 82 | 86 | 2.6 | 4.3 | 0.00 | 0.00 | 0.00 | 13 | 1009.6 |
| 20260506234516 | 82 | 61 | 1.7 | 5.2 | 0.00 | 0.00 | 0.00 | 13 | 1009.5 |
| 20260506234016 | 82 | 46 | 1.7 | 5.2 | 0.00 | 0.00 | 0.00 | 13 | 1009.4 |
| 20260506233516 | 83 | 31 | 2.6 | 6.1 | 0.00 | 0.00 | 0.00 | 12 | 1009.5 |
| 20260506233015 | 83 | 39 | 1.7 | 8.7 | 0.00 | 0.00 | 0.00 | 12 | 1009.3 |
| 20260506232515 | 83 | 60 | 4.3 | 7.0 | 0.00 | 0.00 | 0.00 | 12 | 1009.3 |
| 20260506232014 | 83 | 54 | 2.6 | 7.0 | 0.00 | 0.00 | 0.00 | 12 | 1009.3 |
| 20260506231515 | 83 | 50 | 2.6 | 7.8 | 0.00 | 0.00 | 0.00 | 12 | 1009.4 |
| 20260506231018 | 83 | 41 | 3.5 | 7.8 | 0.00 | 0.00 | 0.00 | 13 | 1009.4 |
| 20260506230017 | 84 | 86 | 1.7 | 7.8 | 0.00 | 0.00 | 0.00 | 12 | 1009.3 |
| 20260506225517 | 84 | 70 | 3.5 | 9.6 | 0.00 | 0.00 | 0.00 | 12 | 1009.3 |
| 20260506225014 | 84 | 61 | 6.1 | 9.6 | 0.00 | 0.00 | 0.00 | 11 | 1009.2 |
| 20260506224514 | 84 | 41 | 2.6 | 11.3 | 0.00 | 0.00 | 0.00 | 12 | 1009.2 |
| 20260506224015 | 85 | 15 | 7.0 | 11.3 | 0.00 | 0.00 | 0.00 | 11 | 1009.2 |
| 20260506223513 | 85 | 81 | 6.1 | 10.4 | 0.00 | 0.00 | 0.00 | 11 | 1009.3 |
| 20260506223013 | 85 | 19 | 1.7 | 8.7 | 0.00 | 0.00 | 0.00 | 11 | 1009.2 |
| 20260506222513 | 84 | 49 | 5.2 | 8.7 | 0.00 | 0.00 | 0.00 | 12 | 1009.5 |
| 20260506222016 | 84 | 56 | 2.6 | 7.0 | 0.00 | 0.00 | 0.00 | 11 | 1009.6 |
| 20260506221513 | 84 | 348 | 1.7 | 7.0 | 0.00 | 0.00 | 0.00 | 11 | 1009.6 |
| 20260506221017 | 85 | 17 | 3.5 | 7.8 | 0.00 | 0.00 | 0.00 | 11 | 1009.5 |
| 20260506220021 | 85 | 2 | 3.5 | 7.0 | 0.00 | 0.00 | 0.00 | 11 | 1009.5 |
| 20260506215520 | 85 | 36 | 2.6 | 7.0 | 0.00 | 0.00 | 0.00 | 12 | 1009.4 |
| 20260506215018 | 85 | 37 | 1.7 | 8.7 | 0.00 | 0.00 | 0.00 | 11 | 1009.4 |
| 20260506214514 | 85 | 347 | 2.6 | 8.7 | 0.00 | 0.00 | 0.00 | 10 | 1009.5 |
| 20260506214014 | 84 | 1 | 2.6 | 7.0 | 0.00 | 0.00 | 0.00 | 10 | 1009.6 |
| 20260506213513 | 84 | 341 | 3.5 | 7.8 | 0.00 | 0.00 | 0.00 | 10 | 1009.6 |
| 20260506213013 | 84 | 341 | 3.5 | 9.6 | 0.00 | 0.00 | 0.00 | 11 | 1009.6 |
| 20260506212513 | 84 | 300 | 5.2 | 10.4 | 0.00 | 0.00 | 0.00 | 11 | 1009.7 |
| 20260506212015 | 84 | 322 | 5.2 | 10.4 | 0.00 | 0.00 | 0.00 | 11 | 1009.7 |
| 20260506211512 | 84 | 5 | 5.2 | 10.4 | 0.00 | 0.00 | 0.00 | 12 | 1009.8 |
| 20260506211013 | 84 | 324 | 3.5 | 10.4 | 0.00 | 0.00 | 0.00 | 11 | 1009.7 |
| 20260506210012 | 84 | 17 | 4.3 | 10.4 | 0.00 | 0.00 | 0.00 | 12 | 1009.9 |
| 20260506205512 | 84 | 353 | 7.0 | 11.3 | 0.00 | 0.00 | 0.00 | 11 | 1009.9 |
| 20260506205012 | 85 | 356 | 4.3 | 10.4 | 0.00 | 0.00 | 0.00 | 11 | 1009.8 |
| 20260506204513 | 86 | 358 | 4.3 | 10.4 | 0.00 | 0.00 | 0.00 | 11 | 1009.9 |
| 20260506204011 | 86 | 350 | 6.1 | 9.6 | 0.00 | 0.00 | 0.00 | 10 | 1009.9 |
| 20260506203517 | 86 | 43 | 2.6 | 12.2 | 0.00 | 0.00 | 0.00 | 10 | 1010.1 |
| 20260506203011 | 87 | 329 | 7.8 | 12.2 | 0.00 | 0.00 | 0.00 | 9 | 1010.1 |
| 20260506202511 | 86 | 323 | 3.5 | 7.0 | 0.00 | 0.00 | 0.00 | 10 | 1010.2 |
| 20260506202011 | 86 | 6 | 3.5 | 8.7 | 0.00 | 0.00 | 0.00 | 11 | 1010.1 |
| 20260506201516 | 86 | 355 | 7.0 | 9.6 | 0.00 | 0.00 | 0.00 | 11 | 1010.2 |
| 20260506201011 | 86 | 312 | 4.3 | 10.4 | 0.00 | 0.00 | 0.00 | 11 | 1010.0 |
| 20260506200012 | 86 | 20 | 4.3 | 10.4 | 0.00 | 0.00 | 0.00 | 11 | 1010.1 |
| 20260506195512 | 86 | 46 | 3.5 | 11.3 | 0.00 | 0.00 | 0.00 | 11 | 1010.2 |
| 20260506195013 | 87 | 27 | 4.3 | 11.3 | 0.00 | 0.00 | 0.00 | 12 | 1010.2 |
| 20260506194516 | 87 | 3 | 3.5 | 9.6 | 0.00 | 0.00 | 0.00 | 11 | 1010.2 |
| 20260506194010 | 87 | 40 | 2.6 | 9.6 | 0.00 | 0.00 | 0.00 | 13 | 1010.2 |
| 20260506193508 | 86 | 71 | 4.3 | 12.2 | 0.00 | 0.00 | 0.00 | 14 | 1010.2 |
| 20260506193010 | 85 | 352 | 5.2 | 12.2 | 0.00 | 0.00 | 0.00 | 13 | 1010.4 |
| 20260506192511 | 85 | 27 | 4.3 | 11.3 | 0.00 | 0.00 | 0.00 | 14 | 1010.5 |
| 20260506192010 | 86 | 60 | 5.2 | 11.3 | 0.00 | 0.00 | 0.00 | 13 | 1010.5 |
| 20260506191507 | 85 | 297 | 5.2 | 8.7 | 0.00 | 0.00 | 0.00 | 14 | 1010.5 |
| 20260506191006 | 86 | 39 | 3.5 | 10.4 | 0.00 | 0.00 | 0.00 | 15 | 1010.6 |
| 20260506190006 | 85 | 4 | 3.5 | 9.6 | 0.00 | 0.00 | 0.00 | 17 | 1010.7 |
| 20260506185504 | 84 | 35 | 2.6 | 8.7 | 0.00 | 0.00 | 0.00 | 19 | 1010.9 |
| 20260506185004 | 84 | 66 | 6.1 | 8.7 | 0.00 | 0.00 | 0.00 | 17 | 1010.6 |
| 20260506184504 | 85 | 356 | 3.5 | 7.8 | 0.00 | 0.00 | 0.00 | 18 | 1010.9 |
| 20260506184005 | 85 | 27 | 4.3 | 10.4 | 0.00 | 0.00 | 0.00 | 20 | 1011.0 |
| 20260506183504 | 85 | 43 | 6.1 | 10.4 | 0.00 | 0.00 | 0.00 | 18 | 1011.1 |
| 20260506183004 | 85 | 25 | 5.2 | 9.6 | 0.00 | 0.00 | 0.00 | 19 | 1011.1 |
| 20260506182503 | 85 | 44 | 3.5 | 9.6 | 0.00 | 0.00 | 0.00 | 17 | 1011.2 |
| 20260506182004 | 85 | 6 | 3.5 | 8.7 | 0.00 | 0.00 | 0.00 | 18 | 1011.2 |
| 20260506181502 | 84 | 340 | 2.6 | 12.2 | 0.00 | 0.00 | 0.00 | 21 | 1011.2 |
| 20260506181059 | 83 | 25 | 7.0 | 12.2 | 0.00 | 0.00 | 0.00 | 22 | 1011.2 |
| 20260506180107 | 82 | 76 | 6.1 | 12.2 | 0.00 | 0.00 | 0.00 | 25 | 1011.3 |
| 20260506175557 | 81 | 52 | 5.2 | 8.7 | 0.00 | 0.00 | 0.00 | 25 | 1011.3 |
| 20260506175101 | 81 | 50 | 5.2 | 10.4 | 0.00 | 0.00 | 0.00 | 26 | 1011.3 |
| 20260506174558 | 81 | 56 | 6.1 | 10.4 | 0.00 | 0.00 | 0.00 | 26 | 1011.4 |
| 20260506174100 | 80 | 22 | 6.1 | 10.4 | 0.00 | 0.00 | 0.00 | 27 | 1011.5 |
| 20260506173558 | 81 | 63 | 6.1 | 10.4 | 0.00 | 0.00 | 0.00 | 25 | 1011.5 |
| 20260506173059 | 81 | 81 | 4.3 | 9.6 | 0.00 | 0.00 | 0.00 | 26 | 1011.5 |
| 20260506172557 | 81 | 345 | 3.5 | 11.3 | 0.00 | 0.00 | 0.00 | 27 | 1011.6 |
| 20260506172054 | 81 | 44 | 6.1 | 12.2 | 0.00 | 0.00 | 0.00 | 28 | 1011.7 |
| 20260506171558 | 80 | 58 | 5.2 | 12.2 | 0.00 | 0.00 | 0.00 | 29 | 1011.5 |
| 20260506171056 | 80 | 20 | 2.6 | 10.4 | 0.00 | 0.00 | 0.00 | 30 | 1011.5 |
| 20260506170105 | 80 | 77 | 4.3 | 7.0 | 0.00 | 0.00 | 0.00 | 30 | 1011.5 |
| 20260506165555 | 80 | 14 | 2.6 | 7.0 | 0.00 | 0.00 | 0.00 | 31 | 1011.5 |
| 20260506165055 | 79 | 34 | 2.6 | 7.0 | 0.00 | 0.00 | 0.00 | 32 | 1011.5 |
| 20260506164557 | 79 | 39 | 2.6 | 10.4 | 0.00 | 0.00 | 0.00 | 31 | 1011.3 |
| 20260506164053 | 79 | 47 | 6.1 | 10.4 | 0.00 | 0.00 | 0.00 | 32 | 1011.2 |
| 20260506163555 | 79 | 43 | 4.3 | 9.6 | 0.00 | 0.00 | 0.00 | 32 | 1011.3 |
| 20260506163111 | 79 | 27 | 3.5 | 10.4 | 0.00 | 0.00 | 0.00 | 33 | 1011.3 |
| 20260506162553 | 78 | 5 | 5.2 | 11.3 | 0.00 | 0.00 | 0.00 | 34 | 1011.3 |
| 20260506162054 | 78 | 53 | 7.0 | 12.2 | 0.00 | 0.00 | 0.00 | 35 | 1011.3 |
| 20260506161556 | 78 | 30 | 6.1 | 11.3 | 0.00 | 0.00 | 0.00 | 36 | 1011.2 |
| 20260506161052 | 78 | 39 | 7.0 | 11.3 | 0.00 | 0.00 | 0.00 | 36 | 1011.1 |
| 20260506160050 | 78 | 50 | 7.0 | 12.2 | 0.00 | 0.00 | 0.00 | 36 | 1011.0 |
| 20260506155552 | 78 | 41 | 6.1 | 11.3 | 0.00 | 0.00 | 0.00 | 36 | 1010.9 |
| 20260506155047 | 79 | 36 | 7.0 | 11.3 | 0.00 | 0.00 | 0.00 | 35 | 1010.8 |
| 20260506154606 | 80 | 44 | 4.3 | 9.6 | 0.00 | 0.00 | 0.00 | 34 | 1010.6 |
| 20260506154046 | 80 | 44 | 4.3 | 7.8 | 0.00 | 0.00 | 0.00 | 34 | 1010.6 |
| 20260506153544 | 79 | 21 | 3.5 | 8.7 | 0.00 | 0.00 | 0.00 | 34 | 1010.6 |
| 20260506153054 | 79 | 52 | 5.2 | 8.7 | 0.00 | 0.00 | 0.00 | 33 | 1010.6 |
| 20260506152543 | 79 | 62 | 4.3 | 7.8 | 0.00 | 0.00 | 0.00 | 33 | 1010.5 |
| 20260506152042 | 79 | 8 | 2.6 | 6.1 | 0.00 | 0.00 | 0.00 | 32 | 1010.4 |
| 20260506151541 | 79 | 337 | 2.6 | 6.1 | 0.00 | 0.00 | 0.00 | 31 | 1010.3 |
| 20260506151040 | 78 | 356 | 2.6 | 5.2 | 0.00 | 0.00 | 0.00 | 31 | 1010.3 |
| 20260506150040 | 78 | 43 | 1.7 | 3.5 | 0.00 | 0.00 | 0.00 | 32 | 1010.3 |
| 20260506145538 | 77 | 8 | 1.7 | 6.1 | 0.00 | 0.00 | 0.00 | 33 | 1010.3 |
| 20260506145037 | 77 | 4 | 1.7 | 6.1 | 0.00 | 0.00 | 0.00 | 33 | 1010.2 |
| 20260506144535 | 76 | 4 | 1.7 | 6.1 | 0.00 | 0.00 | 0.00 | 34 | 1010.2 |
| 20260506144034 | 75 | 32 | 2.6 | 5.2 | 0.00 | 0.00 | 0.00 | 32 | 1010.3 |
| 20260506143537 | 75 | 59 | 1.7 | 3.5 | 0.00 | 0.00 | 0.00 | 30 | 1010.3 |
| 20260506143045 | 75 | 150 | 0.9 | 2.6 | 0.00 | 0.00 | 0.00 | 31 | 1010.2 |
| 20260506142536 | 75 | 127 | 1.7 | 2.6 | 0.00 | 0.00 | 0.00 | 32 | 1010.1 |
| 20260506142031 | 75 | 127 | 0.9 | 2.6 | 0.00 | 0.00 | 0.00 | 33 | 1010.1 |
| 20260506141535 | 74 | 178 | 0.0 | 2.6 | 0.00 | 0.00 | 0.00 | 34 | 1010.1 |
| 20260506141034 | 74 | 162 | 1.7 | 3.5 | 0.00 | 0.00 | 0.00 | 34 | 1010.1 |
| 20260506140031 | 74 | 100 | 0.9 | 2.6 | 0.00 | 0.00 | 0.00 | 32 | 1010.2 |
| 20260506135529 | 74 | 93 | 1.7 | 2.6 | 0.00 | 0.00 | 0.00 | 32 | 1010.2 |
| 20260506135028 | 73 | 89 | 0.0 | 2.6 | 0.00 | 0.00 | 0.00 | 34 | 1010.1 |
| 20260506134527 | 72 | 107 | 0.0 | 2.6 | 0.00 | 0.00 | 0.00 | 35 | 1009.8 |
| 20260506134026 | 72 | 191 | 0.9 | 3.5 | 0.00 | 0.00 | 0.00 | 36 | 1009.8 |
| 20260506133525 | 71 | 178 | 0.0 | 3.5 | 0.00 | 0.00 | 0.00 | 37 | 1009.8 |
| 20260506133023 | 71 | 200 | 1.7 | 3.5 | 0.00 | 0.00 | 0.00 | 36 | 1009.8 |
| 20260506132524 | 70 | 139 | 1.7 | 3.5 | 0.00 | 0.00 | 0.00 | 36 | 1009.8 |
| 20260506132024 | 70 | 117 | 0.0 | 1.7 | 0.00 | 0.00 | 0.00 | 38 | 1009.9 |
| 20260506131522 | 69 | 223 | 0.0 | 3.5 | 0.00 | 0.00 | 0.00 | 39 | 1009.8 |
| 20260506131025 | 69 | 174 | 0.9 | 2.6 | 0.00 | 0.00 | 0.00 | 39 | 1009.7 |
| 20260506130624 | 68 | 202 | 0.0 | 1.7 | 0.00 | 0.00 | 0.00 | 42 | 1009.7 |
| 20260506130023 | 68 | 202 | 0.9 | 1.7 | 0.00 | 0.00 | 0.00 | 43 | 1009.6 |
| 20260506125522 | 67 | 202 | 0.9 | 2.6 | 0.00 | 0.00 | 0.00 | 43 | 1009.7 |
| 20260506125022 | 67 | 210 | 0.0 | 2.6 | 0.00 | 0.00 | 0.00 | 44 | 1009.6 |
| 20260506124522 | 67 | 212 | 1.7 | 3.5 | 0.00 | 0.00 | 0.00 | 45 | 1009.7 |
| 20260506124021 | 67 | 212 | 0.9 | 3.5 | 0.00 | 0.00 | 0.00 | 45 | 1009.8 |
| 20260506123520 | 67 | 351 | 0.0 | 2.6 | 0.00 | 0.00 | 0.00 | 45 | 1009.6 |
| 20260506123019 | 67 | 351 | 0.9 | 3.5 | 0.00 | 0.00 | 0.00 | 45 | 1009.4 |
| 20260506122520 | 67 | 351 | 1.7 | 7.0 | 0.00 | 0.00 | 0.00 | 45 | 1009.2 |
| 20260506122018 | 67 | 352 | 1.7 | 7.0 | 0.00 | 0.00 | 0.00 | 45 | 1009.1 |
| 20260506121517 | 67 | 327 | 0.9 | 5.2 | 0.00 | 0.00 | 0.00 | 44 | 1008.8 |
| 20260506121016 | 67 | 54 | 0.0 | 1.7 | 0.00 | 0.00 | 0.00 | 45 | 1008.4 |
| 20260506120017 | 67 | 54 | 0.9 | 2.6 | 0.00 | 0.00 | 0.00 | 44 | 1008.2 |
| 20260506115516 | 67 | 54 | 0.0 | 6.1 | 0.00 | 0.00 | 0.00 | 44 | 1008.2 |
| 20260506115017 | 67 | 53 | 3.5 | 6.1 | 0.00 | 0.00 | 0.00 | 44 | 1008.3 |
| 20260506114515 | 67 | 25 | 0.0 | 2.6 | 0.00 | 0.00 | 0.00 | 44 | 1008.3 |
| 20260506114015 | 67 | 25 | 0.9 | 2.6 | 0.00 | 0.00 | 0.00 | 44 | 1008.3 |
| 20260506113514 | 67 | 25 | 0.9 | 2.6 | 0.00 | 0.00 | 0.00 | 44 | 1008.2 |
| 20260506113014 | 67 | 1 | 0.9 | 2.6 | 0.00 | 0.00 | 0.00 | 44 | 1008.2 |
| 20260506112516 | 67 | 348 | 0.0 | 0.9 | 0.00 | 0.00 | 0.00 | 43 | 1008.1 |
| 20260506112013 | 67 | 348 | 0.0 | 1.7 | 0.00 | 0.00 | 0.00 | 43 | 1007.9 |
| 20260506111513 | 67 | 348 | 0.0 | 1.7 | 0.00 | 0.00 | 0.00 | 42 | 1008.0 |
| 20260506111011 | 68 | 356 | 0.9 | 4.3 | 0.00 | 0.00 | 0.00 | 40 | 1007.8 |
| 20260506110010 | 68 | 17 | 1.7 | 4.3 | 0.00 | 0.00 | 0.00 | 40 | 1007.6 |
| 20260506105508 | 69 | 10 | 2.6 | 5.2 | 0.00 | 0.00 | 0.00 | 36 | 1007.5 |
| 20260506105008 | 70 | 1 | 2.6 | 5.2 | 0.00 | 0.00 | 0.00 | 34 | 1007.6 |
| 20260506104506 | 70 | 326 | 2.6 | 5.2 | 0.00 | 0.00 | 0.00 | 33 | 1007.7 |
| 20260506104005 | 70 | 327 | 2.6 | 5.2 | 0.00 | 0.00 | 0.00 | 33 | 1007.8 |
| 20260506103504 | 70 | 351 | 1.7 | 4.3 | 0.00 | 0.00 | 0.00 | 32 | 1007.9 |
| 20260506103003 | 70 | 301 | 2.6 | 7.8 | 0.00 | 0.00 | 0.00 | 32 | 1007.8 |
| 20260506102502 | 70 | 333 | 3.5 | 8.7 | 0.00 | 0.00 | 0.00 | 31 | 1007.7 |
| 20260506102001 | 71 | 327 | 5.2 | 8.7 | 0.00 | 0.00 | 0.00 | 31 | 1007.8 |
| 20260506101500 | 70 | 344 | 4.3 | 8.7 | 0.00 | 0.00 | 0.00 | 31 | 1007.7 |
| 20260506101001 | 70 | 316 | 1.7 | 6.1 | 0.00 | 0.00 | 0.00 | 32 | 1007.7 |
| 20260506100001 | 70 | 316 | 2.6 | 6.1 | 0.00 | 0.00 | 0.00 | 32 | 1007.3 |
| 20260506095601 | 70 | 325 | 2.6 | 6.1 | 0.00 | 0.00 | 0.00 | 32 | 1007.3 |
| 20260506095503 | 70 | 331 | 3.5 | 6.1 | 0.00 | 0.00 | 0.00 | 32 | 1007.3 |
| 20260506095103 | 70 | 306 | 0.0 | 3.5 | 0.00 | 0.00 | 0.00 | 32 | 1007.5 |
| 20260506094627 | 70 | 306 | 0.0 | 4.3 | 0.00 | 0.00 | 0.00 | 32 | 1007.4 |
| 20260506094100 | 71 | 302 | 1.7 | 4.3 | 0.00 | 0.00 | 0.00 | 31 | 1007.2 |
| 20260506093600 | 71 | 338 | 1.7 | 4.3 | 0.00 | 0.00 | 0.00 | 30 | 1007.2 |
| 20260506093101 | 72 | 345 | 1.7 | 5.2 | 0.00 | 0.00 | 0.00 | 28 | 1007.0 |
| 20260506092600 | 71 | 2 | 1.7 | 6.1 | 0.00 | 0.00 | 0.00 | 28 | 1007.0 |
| 20260506092100 | 71 | 342 | 2.6 | 6.1 | 0.00 | 0.00 | 0.00 | 28 | 1007.1 |
| 20260506091600 | 71 | 225 | 0.0 | 3.5 | 0.00 | 0.00 | 0.00 | 28 | 1006.8 |
| 20260506091059 | 71 | 225 | 1.7 | 3.5 | 0.00 | 0.00 | 0.00 | 28 | 1006.7 |
| 20260506090701 | 71 | 227 | 1.7 | 3.5 | 0.00 | 0.00 | 0.00 | 28 | 1006.8 |
| 20260506090059 | 71 | 227 | 1.7 | 3.5 | 0.00 | 0.00 | 0.00 | 29 | 1006.8 |
| 20260506085559 | 70 | 228 | 2.6 | 3.5 | 0.00 | 0.00 | 0.00 | 29 | 1006.9 |
| 20260506085059 | 70 | 137 | 0.9 | 2.6 | 0.00 | 0.00 | 0.00 | 31 | 1006.9 |
| 20260506084602 | 70 | 135 | 0.0 | 1.7 | 0.00 | 0.00 | 0.00 | 31 | 1006.8 |
| 20260506084103 | 70 | 135 | 0.0 | 1.7 | 0.00 | 0.00 | 0.00 | 31 | 1007.0 |
| 20260506083558 | 70 | 135 | 0.9 | 1.7 | 0.00 | 0.00 | 0.00 | 31 | 1007.2 |
| 20260506083104 | 70 | 135 | 0.0 | 2.6 | 0.00 | 0.00 | 0.00 | 31 | 1007.2 |
| 20260506082602 | 70 | 135 | 0.9 | 2.6 | 0.00 | 0.00 | 0.00 | 31 | 1007.1 |
| 20260506082058 | 70 | 135 | 0.9 | 2.6 | 0.00 | 0.00 | 0.00 | 31 | 1007.0 |
| 20260506081558 | 70 | 135 | 0.9 | 1.7 | 0.00 | 0.00 | 0.00 | 31 | 1007.2 |
| 20260506081157 | 70 | 135 | 0.9 | 1.7 | 0.00 | 0.00 | 0.00 | 31 | 1007.2 |
| 20260506080658 | 70 | 135 | 0.9 | 1.7 | 0.00 | 0.00 | 0.00 | 31 | 1007.1 |